Regional Weather Roundup
Issued by NWS

Home | Current Version | Previous Version | Text Only | Print | Product List | Glossary On
Versions: 1 2 3 4 5 6 7 8 9 10 11 12 13 14 15 16 17 18 19 20 21 22 23 24 25 26 27 28 29 30 31 32 33 34 35 36 37 38 39 40 41 42 43 44 45 46 47 48 49 50
000
ASUS43 KLSX 042307
RWRMO

WEATHER SUMMARY FOR MISSOURI
NATIONAL WEATHER SERVICE SPRINGFIELD MO
600 PM CDT MON MAY 04 2015

NOTE: "FAIR" INDICATES FEW OR NO CLOUDS BELOW 12,000 FEET WITH NO
       SIGNIFICANT WEATHER AND/OR OBSTRUCTIONS TO VISIBILITY.
       CURRENT SKY AND/OR WEATHER CONDITIONS ARE NOT AVAILABLE FOR
       CHILLICOTHE AND FARMINGTON.

MOZ001>031-035>038-043-044-053-054-050000-
...NORTHERN AND WESTERN MISSOURI...

CITY           SKY/WX    TMP DP  RH WIND       PRES   REMARKS
KANSAS CTY INT CLOUDY    76  62  62 SW10      29.95F
KANSAS C DTWN  PTSUNNY   79  64  60 S12       29.94F
LEE`S SUMMIT   MOSUNNY   80  62  54 S13G21    29.97F
ST JOSEPH      TSTM      65  61  87 NW29G40   30.02R VSB 3/4
CHILLICOTHE      N/A     79  61  53 SE6       30.01S
KIRKSVILLE     MOSUNNY   77  62  59 SW9       30.05R

$$
MOZ066>068-077>081-088>096-101>105-050000-
...SOUTHWEST MISSOURI...

CITY           SKY/WX    TMP DP  RH WIND       PRES   REMARKS
SPRINGFIELD    CLOUDY    78  57  48 S14       30.06F
JOPLIN         MOSUNNY   80  59  48 S17       30.03F

$$
MOZ032>034-039>042-045>050-055>058-069>072-050000-
...CENTRAL MISSOURI...

CITY           SKY/WX    TMP DP  RH WIND       PRES   REMARKS
COLUMBIA       PTSUNNY   82  61  48 S13       30.03F
JEFFERSON CITY MOSUNNY   83  57  41 S12       30.01F
ROLLA          SUNNY     80  57  45 S14       30.05F
SEDALIA        MOSUNNY   80  60  50 S14       30.03F
WHITEMAN AFB   MOSUNNY   80  62  55 S14G22    29.99F
WARRENSBURG    MOSUNNY   81  59  47 S15G21    30.00S
OSAGE BEACH    MOSUNNY  N/A N/A N/A S12       30.04F

$$
MOZ051-052-059>065-050000-
...EAST CENTRAL MISSOURI...

CITY           SKY/WX    TMP DP  RH WIND       PRES   REMARKS
ST LOUIS INTL  PTSUNNY   86  55  34 S9        30.05F
SPIRIT OF STL  PTSUNNY   82  56  40 SW10G17   30.03F
ST CHARLES     PTSUNNY   83  56  39 VRB6      30.03F

$$
MOZ072>076-082>087-097>100-106>115-050000-
...SOUTH CENTRAL AND SOUTHEAST MISSOURI...

CITY           SKY/WX    TMP DP  RH WIND       PRES   REMARKS
CAPE GIRARDEAU MOSUNNY   82  54  37 S13       30.10S
FARMINGTON     MOSUNNY   81  54  39 S14       30.13F
POPLAR BLUFF   SUNNY     82  53  36 S13       30.09S
WEST PLAINS    MOSUNNY   79  53  40 S9        30.12S

$$



USA.gov is the U.S. government's official web portal to all federal, state and local government web resources and services.